Torna al catalogo

TITAN 3C TRANSTAGE DEB

AttivoHEO
NORAD 26050·DEBRIS·🇺🇸 United States

Lanciato Dec 21, 1965 da Cape Canaveral Space Force Station

Loading…

Prossimi Passaggi (prossime 24 ore)

TLE

AggiornatoSource: Space-Track

Epoca: Sep 14, 2026, 03:29 UTC

1 26050U 65108AJ  26257.14521422 -.00000049  00000-0  42024-2 0  9994
2 26050  26.2602 194.6341 6607126 326.1019   5.4417  2.69859082268625

Traccia TITAN 3C TRANSTAGE DEB in tempo reale con AllMySat

Download on the App Store